Provincetown, MA

3:45 PM EDT on September 27, 2016 (GMT -0400)
Provincetown Municipal

Weather History for KPVC - December, 2013

Change the Weather History Date:

Saturday, December 21, 2013

  Actual Average Record
Temperature  
Mean Temperature 48 °F -  
Max Temperature 51 °F 40 °F 60 °F (1951)
Min Temperature 44 °F 29 °F 8 °F (1955)
Degree Days  
Heating Degree Days 18    
Moisture  
Dew Point 46 °F    
Average Humidity 88    
Maximum Humidity 93    
Minimum Humidity 76    
Precipitation  
Precipitation 0.09 in - - ()
Sea Level Pressure  
Sea Level Pressure 29.95 in    
Wind  
Wind Speed 16 mph (SW)    
Max Wind Speed 21 mph    
Max Gust Speed 29 mph    
Visibility 10 miles    
Events      
Averages and records for this station are not official NWS values.
T = Trace of Precipitation, MM = Missing Value Source: NWS Daily Summary

Daily Weather History Graph

Daily Weather History Graph

Search for Another Location

Airport or City:

Trip Planner

Search our weather history database for the weather conditions in past years. The results will help you decide how hot, cold, wet, or windy it might be!

Date:

Astronomy

Dec. 21, 2013 Rise Set
Actual Time 7:05 AM EST 4:12 PM EST
Civil Twilight 6:34 AM EST 4:44 PM EST
Nautical Twilight 5:58 AM EST 5:19 PM EST
Astronomical Twilight 5:24 AM EST 5:53 PM EST
Moon 8:29 PM EST (12/21) 9:26 AM EST (12/21)
Length of Visible Light 10h 10m
Length of Day
9h 06m
Waning Gibbous, 84% of the Moon is Illuminated
Dec 21
Waning Gibbous
Dec 25
Last Quarter
Jan 1
New
Jan 7
First Quarter
Jan 15
Full

Hourly Weather History & Observations

Time (EST) Temp. Windchill Dew Point Humidity Pressure Visibility Wind Dir Wind Speed Gust Speed Precip Events Conditions
12:15 AM 44.6 °F 38.1 °F 42.8 °F 93% 29.98 in 10.0 mi SW 13.8 mph - N/A   Mostly Cloudy
12:35 AM 46.4 °F 40.7 °F 42.8 °F 87% 29.98 in 10.0 mi SSW 12.7 mph - N/A   Overcast
12:55 AM 44.6 °F 38.8 °F 42.8 °F 93% 29.96 in 10.0 mi SSW 11.5 mph - 0.01 in   Overcast
1:15 AM 46.4 °F 40.7 °F 42.8 °F 87% 29.97 in 10.0 mi SW 12.7 mph - 0.01 in   Overcast
1:35 AM 46.4 °F 40.7 °F 44.6 °F 93% 29.97 in 10.0 mi SW 12.7 mph 19.6 mph 0.01 in   Mostly Cloudy
1:55 AM 46.4 °F 40.7 °F 44.6 °F 93% 29.97 in 10.0 mi SW 12.7 mph - 0.01 in   Overcast
2:15 AM 46.4 °F 40.1 °F 44.6 °F 93% 29.96 in 10.0 mi SW 15.0 mph 19.6 mph N/A   Mostly Cloudy
2:35 AM 46.4 °F 40.4 °F 44.6 °F 93% 29.96 in 10.0 mi SW 13.8 mph - 0.01 in   Scattered Clouds
2:55 AM 46.4 °F 39.8 °F 44.6 °F 93% 29.96 in 10.0 mi SW 16.1 mph 20.7 mph 0.01 in   Scattered Clouds
3:15 AM 48.2 °F - 44.6 °F 87% 29.95 in 10.0 mi SSW 17.3 mph 23.0 mph 0.01 in   Mostly Cloudy
3:35 AM 48.2 °F - 46.4 °F 93% 29.95 in 10.0 mi SSW 16.1 mph - 0.01 in   Mostly Cloudy
3:55 AM 48.2 °F - 46.4 °F 93% 29.94 in 10.0 mi SSW 15.0 mph - 0.01 in   Mostly Cloudy
4:15 AM 48.2 °F - 46.4 °F 93% 29.94 in 10.0 mi SSW 15.0 mph 20.7 mph N/A   Overcast
4:35 AM 48.2 °F - 46.4 °F 93% 29.95 in 10.0 mi SW 15.0 mph 23.0 mph 0.01 in   Overcast
4:55 AM 48.2 °F - 46.4 °F 93% 29.96 in 10.0 mi SW 15.0 mph 20.7 mph 0.01 in   Mostly Cloudy
5:15 AM 48.2 °F - 44.6 °F 87% 29.95 in 10.0 mi SW 16.1 mph 21.9 mph N/A   Scattered Clouds
5:35 AM 46.4 °F 39.8 °F 44.6 °F 93% 29.96 in 9.0 mi SW 16.1 mph 23.0 mph N/A   Partly Cloudy
5:55 AM 46.4 °F 39.8 °F 44.6 °F 93% 29.96 in 8.0 mi SW 16.1 mph 23.0 mph N/A   Clear
6:15 AM 46.4 °F 39.8 °F 44.6 °F 93% 29.96 in 8.0 mi SW 16.1 mph 21.9 mph N/A   Clear
6:35 AM 46.4 °F 40.1 °F 44.6 °F 93% 29.96 in 8.0 mi SW 15.0 mph - N/A   Clear
6:55 AM 46.4 °F 40.4 °F 44.6 °F 93% 29.97 in 8.0 mi SW 13.8 mph - N/A   Clear
7:15 AM 46.4 °F 40.1 °F 44.6 °F 93% 29.97 in 9.0 mi SW 15.0 mph - 0.01 in   Clear
7:35 AM 46.4 °F 40.1 °F 44.6 °F 93% 29.98 in 8.0 mi SW 15.0 mph - 0.01 in   Clear
7:55 AM 46.4 °F 39.5 °F 44.6 °F 93% 29.98 in 8.0 mi SW 17.3 mph 21.9 mph 0.02 in   Clear
8:15 AM 46.4 °F 40.4 °F 44.6 °F 93% 29.99 in 9.0 mi SW 13.8 mph - N/A   Clear
8:35 AM 46.4 °F 40.7 °F 44.6 °F 93% 29.99 in 8.0 mi SW 12.7 mph - N/A   Clear
8:55 AM 48.2 °F - 44.6 °F 87% 30.00 in 9.0 mi SW 17.3 mph 21.9 mph N/A   Clear
9:15 AM 48.2 °F - 44.6 °F 87% 29.99 in 9.0 mi SW 17.3 mph 24.2 mph N/A   Clear
9:35 AM 48.2 °F - 46.4 °F 93% 30.00 in 10.0 mi SW 15.0 mph 24.2 mph N/A   Clear
9:55 AM 50.0 °F - 46.4 °F 87% 30.00 in 10.0 mi SW 16.1 mph 21.9 mph N/A   Partly Cloudy
10:15 AM 51.8 °F - 46.4 °F 82% 30.00 in 10.0 mi SW 18.4 mph 24.2 mph N/A   Clear
10:35 AM 51.8 °F - 46.4 °F 82% 30.00 in 10.0 mi SW 19.6 mph 25.3 mph N/A   Clear
10:55 AM 51.8 °F - 46.4 °F 82% 29.98 in 10.0 mi SW 18.4 mph 24.2 mph N/A   Clear
11:15 AM 51.8 °F - 46.4 °F 82% 29.97 in 10.0 mi SW 16.1 mph 24.2 mph N/A   Clear
11:35 AM 51.8 °F - 46.4 °F 82% 29.96 in 10.0 mi SW 17.3 mph - N/A   Clear
11:55 AM 51.8 °F - 46.4 °F 82% 29.95 in 10.0 mi SW 17.3 mph 24.2 mph N/A   Clear
12:15 PM 51.8 °F - 46.4 °F 82% 29.93 in 10.0 mi SSW 17.3 mph 24.2 mph N/A   Clear
12:35 PM 51.8 °F - 46.4 °F 82% 29.92 in 10.0 mi SSW 16.1 mph 21.9 mph N/A   Clear
12:55 PM 51.8 °F - 44.6 °F 76% 29.92 in 10.0 mi SSW 17.3 mph 26.5 mph N/A   Clear
1:15 PM 51.8 °F - 46.4 °F 82% 29.92 in 10.0 mi SSW 19.6 mph 25.3 mph N/A   Clear
1:35 PM 51.8 °F - 46.4 °F 82% 29.91 in 10.0 mi SSW 19.6 mph 25.3 mph N/A   Clear
1:55 PM 51.8 °F - 46.4 °F 82% 29.91 in 10.0 mi SSW 19.6 mph 25.3 mph N/A   Clear
2:15 PM 51.8 °F - 46.4 °F 82% 29.91 in 10.0 mi SW 18.4 mph 25.3 mph 0.01 in   Clear
2:35 PM 51.8 °F - 46.4 °F 82% 29.92 in 10.0 mi SW 16.1 mph 24.2 mph 0.01 in   Clear
2:55 PM 51.8 °F - 46.4 °F 82% 29.92 in 10.0 mi SW 19.6 mph 24.2 mph 0.01 in   Clear
3:15 PM 51.8 °F - 46.4 °F 82% 29.92 in 10.0 mi SW 19.6 mph 27.6 mph N/A   Clear
3:35 PM 51.8 °F - 46.4 °F 82% 29.93 in 10.0 mi SW 18.4 mph - N/A   Clear
3:55 PM 51.8 °F - 46.4 °F 82% 29.92 in 10.0 mi SW 19.6 mph - N/A   Clear
4:15 PM 51.8 °F - 46.4 °F 82% 29.92 in 10.0 mi SW 18.4 mph 25.3 mph N/A   Partly Cloudy
4:35 PM 51.8 °F - 46.4 °F 82% 29.92 in 10.0 mi SW 17.3 mph 28.8 mph N/A   Mostly Cloudy
4:55 PM 51.8 °F - 46.4 °F 82% 29.93 in 10.0 mi SW 18.4 mph 23.0 mph N/A   Overcast
5:15 PM 50.0 °F - 46.4 °F 87% 29.93 in 10.0 mi SSW 16.1 mph 20.7 mph N/A   Mostly Cloudy
5:35 PM 50.0 °F - 46.4 °F 87% 29.93 in 10.0 mi SW 17.3 mph - N/A   Scattered Clouds
5:55 PM 50.0 °F - 46.4 °F 87% 29.95 in 10.0 mi SW 15.0 mph 19.6 mph N/A   Overcast
6:15 PM 50.0 °F - 46.4 °F 87% 29.94 in 10.0 mi SW 19.6 mph 24.2 mph N/A   Overcast
6:35 PM 50.0 °F - 46.4 °F 87% 29.94 in 10.0 mi SW 18.4 mph 25.3 mph N/A   Overcast
6:55 PM 50.0 °F - 46.4 °F 87% 29.94 in 10.0 mi SW 17.3 mph 26.5 mph N/A   Overcast
7:15 PM 50.0 °F - 46.4 °F 87% 29.95 in 10.0 mi SW 18.4 mph 25.3 mph N/A   Overcast
7:35 PM 50.0 °F - 46.4 °F 87% 29.95 in 10.0 mi SW 19.6 mph 24.2 mph N/A   Overcast
7:55 PM 50.0 °F - 46.4 °F 87% 29.95 in 10.0 mi SW 19.6 mph 25.3 mph N/A   Overcast
8:15 PM 50.0 °F - 46.4 °F 87% 29.96 in 10.0 mi SW 18.4 mph 24.2 mph N/A   Overcast
8:35 PM 50.0 °F - 44.6 °F 82% 29.96 in 10.0 mi SW 16.1 mph 23.0 mph N/A   Overcast
8:55 PM 48.2 °F - 46.4 °F 93% 29.95 in 10.0 mi SW 17.3 mph - N/A   Overcast
9:15 PM 50.0 °F - 46.4 °F 87% 29.94 in 10.0 mi SSW 19.6 mph 24.2 mph N/A   Overcast
9:35 PM 50.0 °F - 46.4 °F 87% 29.93 in 10.0 mi SSW 20.7 mph 25.3 mph N/A   Overcast
9:55 PM 50.0 °F - 46.4 °F 87% 29.94 in 10.0 mi SW 20.7 mph 26.5 mph N/A   Overcast
10:15 PM 50.0 °F - 46.4 °F 87% 29.94 in 10.0 mi SW 19.6 mph 25.3 mph 0.01 in   Overcast
10:35 PM 48.2 °F - 46.4 °F 93% 29.93 in 10.0 mi SW 19.6 mph 25.3 mph 0.01 in   Mostly Cloudy
10:55 PM 50.0 °F - 46.4 °F 87% 29.93 in 10.0 mi SW 18.4 mph 28.8 mph 0.01 in   Overcast
11:15 PM 48.2 °F - 46.4 °F 93% 29.94 in 10.0 mi SW 17.3 mph 26.5 mph N/A   Overcast
11:35 PM 50.0 °F - 46.4 °F 87% 29.94 in 9.0 mi SW 19.6 mph 26.5 mph N/A   Overcast
11:55 PM 48.2 °F - 46.4 °F 93% 29.94 in 9.0 mi SW 16.1 mph 24.2 mph N/A   Overcast